Location: Gunung Kajang
(2.4167°N, 113.7167°E)
Time: 22:18:51
(UTC+00:00)

Delta 168 - Pass Details

Date: 29 May 2022
Orbit: 394 x 2031 km, 25.3° (Epoch: 24 June)

Event Time Altitude Azimuth Distance (km) Brightness Sun altitude
Exits shadow 21:37:21 - 284° (WNW) 1,694 4.8 -9.6°
Reaches altitude 10° 21:37:51 10° 290° (WNW) 1,532 4.7 -9.5°
Maximum altitude 21:40:07 17° 333° (NNW) 1,111 4.4 -9.0°
Drops below altitude 10° 21:42:14 10° 17° (NNE) 1,413 5.5 -8.5°
Sets 21:44:46 0° 40° (NE) 2,277 7.2 -7.9°
